{"data":{"norad_id":44453,"epoch":"2026-05-24T06:58:01.844832Z","epoch_age_seconds":139935,"freshness":"FRESH","line1":"1 44453U 19046A   26144.29029913 -.00000011  00000+0  00000+0 0  9993","line2":"2 44453  63.1160  53.8420 7069462 274.8017  14.7796  2.00604462 49869","mean_motion":2.00604462,"eccentricity":0.7069462,"inclination_deg":63.116,"raan_deg":53.842,"arg_perigee_deg":274.8017,"mean_anomaly_deg":14.7796,"bstar":0,"rev_number":4986,"period_min":717.83049372052,"perigee_km":1404.41693969,"apogee_km":38952.791565502,"semimajor_km":26556.741252596,"source":"CELESTRAK","updated_at":"2026-05-25T13:37:55.974202Z"}}